Radiation Dose at Monitoring Post of Fukushima Daini Nuclear Power Station
Date,Time,MP-1(microSv/h),MP-2(microSv/h),MP-3(microSv/h),MP-4(microSv/h),MP-5(microSv/h),MP-6(microSv/h),MP-7(microSv/h),Wind Direction,Wind Velocity(m/s),Rain
2018/11/10,00:00,0.299,0.185,0.294,0.283,0.274,0.147,0.091,south,4.7,No
2018/11/10,00:10,0.297,0.184,0.294,0.282,0.276,0.148,0.091,south,5.6,No
2018/11/10,00:20,0.300,0.186,0.294,0.283,0.274,0.148,0.091,south,5.1,No
2018/11/10,00:30,0.297,0.184,0.296,0.283,0.276,0.148,0.092,south,4.4,No
2018/11/10,00:40,0.299,0.186,0.294,0.283,0.272,0.146,0.092,south-southeast,4.3,No
2018/11/10,00:50,0.297,0.184,0.295,0.283,0.276,0.148,0.091,south-southeast,3.6,No
2018/11/10,01:00,0.300,0.185,0.293,0.283,0.274,0.147,0.091,south,4.4,No
2018/11/10,01:10,0.297,0.185,0.296,0.283,0.275,0.147,0.091,south-southeast,4.9,No
2018/11/10,01:20,0.299,0.185,0.293,0.282,0.273,0.147,0.092,south,4.1,No
2018/11/10,01:30,0.298,0.185,0.295,0.284,0.276,0.148,0.092,south,2.3,No
2018/11/10,01:40,0.299,0.184,0.294,0.282,0.274,0.148,0.091,south-southwest,1.4,No
2018/11/10,01:50,0.298,0.186,0.297,0.283,0.276,0.148,0.092,west-southwest,1.5,No
2018/11/10,02:00,0.298,0.185,0.295,0.283,0.275,0.147,0.091,west,0.7,No
2018/11/10,02:10,0.296,0.187,0.296,0.284,0.276,0.149,0.091,west,1.2,No
2018/11/10,02:20,0.300,0.185,0.296,0.282,0.273,0.147,0.092,west,1.8,No
2018/11/10,02:30,0.298,0.185,0.296,0.284,0.277,0.148,0.092,west-southwest,3.3,No
2018/11/10,02:40,0.300,0.184,0.296,0.283,0.274,0.147,0.091,west,2.0,No
2018/11/10,02:50,0.299,0.184,0.294,0.284,0.277,0.148,0.092,west-southwest,1.9,No
2018/11/10,03:00,0.300,0.185,0.296,0.284,0.275,0.148,0.092,west,1.5,No
2018/11/10,03:10,0.299,0.184,0.296,0.284,0.276,0.148,0.091,-,CALM,No
2018/11/10,03:20,0.300,0.185,0.296,0.285,0.276,0.148,0.092,south,1.2,No
2018/11/10,03:30,0.300,0.185,0.295,0.283,0.275,0.148,0.092,south-southwest,1.4,No
2018/11/10,03:40,0.299,0.184,0.296,0.286,0.276,0.149,0.092,west-southwest,0.6,No
2018/11/10,03:50,0.299,0.185,0.294,0.283,0.274,0.147,0.090,-,CALM,No
2018/11/10,04:00,0.299,0.186,0.296,0.284,0.276,0.148,0.091,-,CALM,No
2018/11/10,04:10,0.300,0.187,0.296,0.284,0.274,0.148,0.092,north-northeast,0.9,No
2018/11/10,04:20,0.299,0.185,0.297,0.284,0.276,0.148,0.091,-,CALM,No
2018/11/10,04:30,0.300,0.186,0.296,0.284,0.274,0.148,0.092,-,CALM,No
2018/11/10,04:40,0.297,0.185,0.295,0.284,0.276,0.148,0.091,north-northeast,1.3,No
2018/11/10,04:50,0.300,0.185,0.296,0.284,0.273,0.148,0.092,north-northeast,1.9,No
2018/11/10,05:00,0.299,0.185,0.295,0.285,0.276,0.149,0.092,north,1.6,No
2018/11/10,05:10,0.300,0.186,0.294,0.283,0.274,0.148,0.092,north-northwest,2.2,No
2018/11/10,05:20,0.298,0.187,0.296,0.285,0.277,0.148,0.092,north-northwest,2.6,No
2018/11/10,05:30,0.300,0.184,0.297,0.284,0.273,0.149,0.092,northwest,3.3,No
2018/11/10,05:40,0.299,0.186,0.295,0.285,0.276,0.148,0.092,north-northwest,3.0,No
2018/11/10,05:50,0.300,0.185,0.296,0.285,0.276,0.148,0.091,north-northwest,2.0,No
2018/11/10,06:00,0.299,0.185,0.297,0.284,0.276,0.148,0.092,north,2.2,No
2018/11/10,06:10,0.300,0.185,0.297,0.285,0.275,0.149,0.092,north-northwest,2.9,No
2018/11/10,06:20,0.297,0.186,0.297,0.284,0.275,0.149,0.092,north-northwest,3.0,No
2018/11/10,06:30,0.301,0.185,0.297,0.285,0.276,0.148,0.092,north-northwest,3.6,No
2018/11/10,06:40,0.299,0.185,0.296,0.283,0.276,0.148,0.092,northwest,2.2,No
2018/11/10,06:50,0.300,0.185,0.296,0.285,0.275,0.149,0.092,west,2.2,No
2018/11/10,07:00,0.298,0.186,0.296,0.284,0.275,0.148,0.092,west-northwest,2.2,No
2018/11/10,07:10,0.300,0.186,0.299,0.285,0.276,0.148,0.092,northwest,1.8,No
2018/11/10,07:20,0.300,0.185,0.295,0.284,0.274,0.149,0.092,north-northwest,0.6,No
2018/11/10,07:30,0.299,0.185,0.297,0.285,0.278,0.148,0.092,west,0.6,No
2018/11/10,07:40,0.299,0.186,0.296,0.285,0.274,0.149,0.092,-,CALM,No
2018/11/10,07:50,0.300,0.186,0.299,0.284,0.277,0.149,0.092,south,0.7,Yes
2018/11/10,08:00,0.301,0.186,0.296,0.285,0.275,0.149,0.093,-,CALM,Yes
2018/11/10,08:10,0.300,0.186,0.297,0.286,0.278,0.149,0.093,-,CALM,No
2018/11/10,08:20,0.300,0.187,0.296,0.285,0.275,0.149,0.094,north,1.9,Yes
2018/11/10,08:30,0.300,0.186,0.299,0.287,0.279,0.149,0.092,north-northwest,2.8,No
2018/11/10,08:40,0.301,0.187,0.296,0.286,0.277,0.150,0.093,north-northwest,2.9,Yes
2018/11/10,08:50,0.301,0.188,0.299,0.284,0.277,0.149,0.092,north,4.4,Yes
2018/11/10,09:00,0.302,0.188,0.297,0.287,0.277,0.150,0.093,north,5.0,No
2018/11/10,09:10,0.300,0.186,0.299,0.283,0.275,0.150,0.092,north,4.2,No
2018/11/10,09:20,0.302,0.188,0.297,0.287,0.279,0.149,0.093,north,5.0,No
2018/11/10,09:30,0.300,0.187,0.298,0.284,0.275,0.149,0.094,north,5.5,No
2018/11/10,09:40,0.302,0.187,0.297,0.287,0.277,0.149,0.092,north,6.9,No
2018/11/10,09:50,0.301,0.186,0.297,0.284,0.275,0.150,0.093,north,6.2,Yes
2018/11/10,10:00,0.302,0.188,0.296,0.285,0.278,0.149,0.092,north,6.2,No
2018/11/10,10:10,0.302,0.186,0.297,0.285,0.277,0.149,0.092,north,5.3,No
2018/11/10,10:20,0.301,0.186,0.298,0.286,0.276,0.150,0.092,north,5.2,No
2018/11/10,10:30,0.303,0.185,0.296,0.286,0.277,0.149,0.092,north,4.2,Yes
2018/11/10,10:40,0.301,0.186,0.297,0.283,0.276,0.149,0.092,north,4.5,No
2018/11/10,10:50,0.302,0.186,0.296,0.286,0.279,0.149,0.092,north,4.7,No
2018/11/10,11:00,0.299,0.187,0.298,0.284,0.276,0.150,0.093,north-northeast,3.5,No
2018/11/10,11:10,0.301,0.187,0.296,0.288,0.276,0.150,0.092,north,3.8,No
2018/11/10,11:20,0.301,0.187,0.297,0.286,0.276,0.148,0.091,north,3.0,No
2018/11/10,11:30,0.302,0.186,0.296,0.286,0.276,0.149,0.093,north,3.5,No
2018/11/10,11:40,0.303,0.187,0.298,0.286,0.278,0.149,0.092,north-northeast,4.5,No
2018/11/10,11:50,0.299,0.186,0.296,0.284,0.274,0.148,0.092,north-northeast,6.0,No
2018/11/10,12:00,0.303,0.186,0.298,0.286,0.278,0.149,0.092,north,5.5,No
2018/11/10,12:10,0.300,0.188,0.296,0.284,0.276,0.149,0.092,north,4.8,No
2018/11/10,12:20,0.301,0.185,0.295,0.287,0.276,0.150,0.091,north,5.0,No
2018/11/10,12:30,0.299,0.186,0.299,0.283,0.278,0.149,0.092,north,6.0,No
2018/11/10,12:40,0.302,0.185,0.295,0.285,0.274,0.149,0.092,north,4.9,No
2018/11/10,12:50,0.301,0.186,0.298,0.287,0.277,0.149,0.092,north-northeast,5.2,No
2018/11/10,13:00,0.300,0.186,0.296,0.283,0.277,0.149,0.092,north-northeast,5.9,No
2018/11/10,13:10,0.303,0.185,0.294,0.286,0.274,0.150,0.092,north-northeast,7.6,No
2018/11/10,13:20,0.300,0.186,0.298,0.286,0.277,0.150,0.092,north-northeast,7.8,No
2018/11/10,13:30,0.302,0.185,0.296,0.284,0.277,0.149,0.091,north,6.7,No
2018/11/10,13:40,0.300,0.188,0.299,0.286,0.274,0.150,0.092,north,5.4,No
2018/11/10,13:50,0.302,0.185,0.297,0.285,0.278,0.149,0.093,north-northeast,6.0,No
2018/11/10,14:00,0.300,0.188,0.298,0.285,0.275,0.150,0.092,north,6.2,No
2018/11/10,14:10,0.303,0.186,0.297,0.286,0.277,0.150,0.093,north,6.3,No
2018/11/10,14:20,0.301,0.187,0.295,0.285,0.276,0.149,0.092,north-northwest,5.2,No
2018/11/10,14:30,0.300,0.186,0.298,0.286,0.274,0.149,0.091,north-northwest,6.5,No
2018/11/10,14:40,0.301,0.185,0.297,0.283,0.276,0.148,0.091,north-northwest,7.6,No
2018/11/10,14:50,0.300,0.186,0.298,0.288,0.274,0.148,0.091,north,6.5,No
2018/11/10,15:00,0.303,0.186,0.296,0.285,0.278,0.150,0.091,north,6.6,No
2018/11/10,15:10,0.300,0.187,0.299,0.286,0.275,0.148,0.092,north-northwest,5.6,No
2018/11/10,15:20,0.302,0.186,0.295,0.285,0.277,0.148,0.092,north-northwest,4.8,No
2018/11/10,15:30,0.301,0.187,0.298,0.286,0.277,0.149,0.092,north-northwest,5.4,No
2018/11/10,15:40,0.303,0.185,0.296,0.286,0.276,0.149,0.091,north-northwest,3.3,No
2018/11/10,15:50,0.302,0.187,0.298,0.285,0.277,0.149,0.091,north,6.7,No
2018/11/10,16:00,0.303,0.186,0.298,0.288,0.276,0.150,0.092,north-northwest,5.1,No
2018/11/10,16:10,0.302,0.187,0.299,0.286,0.278,0.149,0.092,north-northwest,4.1,No
2018/11/10,16:20,0.303,0.186,0.298,0.287,0.278,0.149,0.092,north,5.7,No
2018/11/10,16:30,0.302,0.187,0.299,0.286,0.278,0.149,0.092,north-northwest,6.0,No
2018/11/10,16:40,0.303,0.187,0.297,0.287,0.277,0.150,0.092,north,7.3,No
2018/11/10,16:50,0.303,0.186,0.299,0.286,0.277,0.149,0.091,north-northwest,8.4,No
2018/11/10,17:00,0.304,0.186,0.297,0.284,0.278,0.149,0.092,north-northwest,9.0,No
2018/11/10,17:10,0.303,0.187,0.298,0.288,0.276,0.149,0.092,north-northwest,8.6,No
2018/11/10,17:20,0.304,0.187,0.298,0.286,0.278,0.150,0.091,north-northwest,7.7,No
2018/11/10,17:30,0.303,0.187,0.298,0.288,0.277,0.149,0.092,north,6.2,No
2018/11/10,17:40,0.305,0.186,0.298,0.286,0.277,0.148,0.092,north,6.9,No
2018/11/10,17:50,0.304,0.188,0.298,0.287,0.277,0.149,0.092,north,6.3,No
2018/11/10,18:00,0.304,0.187,0.300,0.287,0.278,0.149,0.092,north,7.4,No
2018/11/10,18:10,0.303,0.188,0.298,0.287,0.278,0.150,0.092,north-northwest,7.2,No
2018/11/10,18:20,0.304,0.187,0.300,0.289,0.277,0.150,0.092,north-northwest,6.4,No
2018/11/10,18:30,0.304,0.187,0.299,0.286,0.279,0.150,0.092,north-northwest,3.6,No
2018/11/10,18:40,0.302,0.188,0.298,0.286,0.277,0.150,0.092,north-northwest,3.7,No
2018/11/10,18:50,0.305,0.187,0.300,0.287,0.278,0.148,0.093,north-northwest,5.3,No
2018/11/10,19:00,0.303,0.187,0.299,0.285,0.277,0.149,0.092,north-northwest,4.9,No
2018/11/10,19:10,0.303,0.187,0.299,0.287,0.277,0.150,0.092,north,5.8,No
2018/11/10,19:20,0.303,0.186,0.299,0.288,0.279,0.150,0.092,north-northwest,5.6,No
2018/11/10,19:30,0.302,0.187,0.299,0.287,0.275,0.150,0.092,north-northwest,6.2,No
2018/11/10,19:40,0.305,0.187,0.299,0.287,0.278,0.150,0.092,north-northwest,6.2,No
2018/11/10,19:50,0.303,0.186,0.299,0.286,0.278,0.150,0.092,north,6.2,No
2018/11/10,20:00,0.304,0.187,0.300,0.287,0.276,0.150,0.092,north,6.5,No
2018/11/10,20:10,0.305,0.188,0.299,0.287,0.279,0.150,0.093,north,6.2,No
2018/11/10,20:20,0.303,0.187,0.298,0.288,0.277,0.150,0.092,north,7.1,No
2018/11/10,20:30,0.304,0.188,0.299,0.287,0.278,0.150,0.092,north-northwest,6.5,No
2018/11/10,20:40,0.304,0.186,0.300,0.288,0.278,0.151,0.092,north-northwest,6.8,No
2018/11/10,20:50,0.303,0.188,0.299,0.287,0.277,0.150,0.092,north-northwest,6.1,No
2018/11/10,21:00,0.304,0.188,0.300,0.287,0.278,0.150,0.092,north-northwest,7.0,No
2018/11/10,21:10,0.303,0.186,0.300,0.287,0.278,0.151,0.092,north-northwest,8.1,No
2018/11/10,21:20,0.305,0.188,0.299,0.288,0.278,0.150,0.092,northwest,8.1,No
2018/11/10,21:30,0.303,0.188,0.297,0.288,0.279,0.151,0.093,north-northwest,9.2,No
2018/11/10,21:40,0.303,0.187,0.300,0.289,0.276,0.151,0.092,north-northwest,10.7,No
2018/11/10,21:50,0.305,0.188,0.299,0.286,0.276,0.150,0.093,north-northwest,10.9,No
2018/11/10,22:00,0.303,0.187,0.300,0.288,0.279,0.150,0.092,northwest,9.8,No
2018/11/10,22:10,0.304,0.186,0.299,0.288,0.278,0.150,0.092,northwest,7.3,No
2018/11/10,22:20,0.305,0.187,0.301,0.287,0.277,0.151,0.092,northwest,6.6,No
2018/11/10,22:30,0.304,0.187,0.300,0.289,0.277,0.150,0.092,northwest,6.3,No
2018/11/10,22:40,0.304,0.188,0.299,0.287,0.275,0.150,0.092,northwest,6.0,No
2018/11/10,22:50,0.305,0.189,0.301,0.287,0.279,0.150,0.093,north-northwest,7.9,No
2018/11/10,23:00,0.305,0.187,0.299,0.288,0.277,0.150,0.092,north-northwest,7.5,No
2018/11/10,23:10,0.305,0.187,0.299,0.286,0.278,0.151,0.091,northwest,7.6,No
2018/11/10,23:20,0.304,0.188,0.300,0.288,0.278,0.151,0.092,northwest,8.6,No
2018/11/10,23:30,0.305,0.188,0.301,0.288,0.276,0.150,0.092,northwest,8.1,No
2018/11/10,23:40,0.306,0.186,0.299,0.287,0.276,0.150,0.092,northwest,7.7,No
2018/11/10,23:50,0.305,0.188,0.301,0.288,0.278,0.150,0.092,northwest,6.2,No
